Regional Weather Roundup
Issued by NWS Green Bay, WI

Home | Current Version | Previous Version | Graphics & Text | Print | Product List | Glossary Off
Versions: 1 2 3 4 5 6 7 8 9 10 11 12 13 14 15 16 17 18 19 20 21 22 23 24 25 26 27 28 29 30 31 32 33 34 35 36 37 38 39 40 41 42 43 44 45 46 47 48 49 50

000
ASUS43 KGRB 240359
RWRGRB

NORTH-CENTRAL AND NORTHEAST WISCONSIN REGIONAL WEATHER ROUNDUP
NATIONAL WEATHER SERVICE GREEN BAY WI
1100 PM CDT THU OCT 23 2014

WIZ005-009-010>012-018-019-240500-
NORTH CENTRAL WISCONSIN

CITY           SKY/WX    TMP DP  RH WIND       PRES   REMARKS
IRONWOOD       MOCLDY    46  45  93 S3        29.96S
MANITOWISH WTR NOT AVBL
ARBOR VITAE    NOT AVBL
EAGLE RIVER    NOT AVBL
LAND O LAKES   NOT AVBL
RHINELANDER    CLOUDY    45  44  97 W10       30.01S FOG
PHILLIPS       NOT AVBL
ANTIGO         NOT AVBL
TOMAHAWK       NOT AVBL
MERRILL        NOT AVBL
$$

WIZ013-073-240500-
NORTHEAST WISCONSIN

CITY           SKY/WX    TMP DP  RH WIND       PRES   REMARKS
IRON MOUNTAIN  CLOUDY    46  44  93 CALM      29.98F FOG
MARINETTE      CLOUDY    48  46  93 CALM      30.01F
$$

WIZ017-030-035>037-045-240500-
CENTRAL WISCONSIN

CITY           SKY/WX    TMP DP  RH WIND       PRES   REMARKS
MEDFORD        NOT AVBL
WAUSAU         FOG       46  46 100 CALM      30.01F VSB 1/4
MOSINEE        NOT AVBL
MARSHFIELD     FOG       47  46  97 SW5       30.02F VSB 1/2
WISC RAPIDS    CLOUDY    47  46  97 SW3       30.04S FOG
STEVENS POINT  NOT AVBL
WAUPACA        NOT AVBL
SHAWANO        NOT AVBL
CLINTONVILLE   NOT AVBL
$$

WIZ038-039-048-051-240500-
FOX VALLEY

CITY           SKY/WX    TMP DP  RH WIND       PRES   REMARKS
NWS GREEN BAY  CLOUDY    49  48  97 S3        30.02F FOG
APPLETON       CLOUDY    48  46  93 CALM      30.03F FOG
OSHKOSH        CLOUDY    50  48  93 CALM      30.02F FOG
FOND DU LAC    CLOUDY    50  48  93 S5        30.03F FOG
$$

WIZ022-050-052-240500-
EAST CENTRAL WISCONSIN

CITY           SKY/WX    TMP DP  RH WIND       PRES   REMARKS
STURGEON BAY   CLOUDY    48  45  87 S7        30.03F
MANITOWOC      NOT AVBL
SHEBOYGAN      CLOUDY    50  48  93 MISG      30.04F FOG
$$

LMZ563-521-522-541>543-240500-
LAKESHORE

STATION/POSITION TIME  TEMP    WIND        PRES    VSBY  WAVE
                       AIR SEA DIR/SP/G                  HT/PER
                 (UTC) (F)     (DEG/KT/KT) (MB)    (MI)  (FT/S)
SHEBOYGAN LKSHOR 0300   52 51  190/ 13/ 14 1017.9F
KEWAUNEE LKSHORE 0300   50     180/  5/  6 1016.4F
NORTHPORT PIER   0300   49     190/  2/  9 1016.6F
N MID LAKE BUOY  0300   51 51  220/ 16/ 17 1017.5F         3/ 5
CHAMBERS ISLAND  0300   50     180/  3/  8 1016.9F
MENOMINEE LKSHOR 0300   49     210/  5/  7 1017.2F
$$



USA.gov is the U.S. government's official web portal to all federal, state and local government web resources and services.